TimeMST,TemperatureF,Dew PointF,Humidity,Sea Level PressureIn,VisibilityMPH,Wind Direction,Wind SpeedMPH,Gust SpeedMPH,PrecipitationIn,Events,Conditions,WindDirDegrees,DateUTC
12:53 AM,24.1,15.1,69,30.00,10.0,WNW,6.9,-,N/A,,Clear,290,2013-02-04 07:53:00
1:53 AM,23.0,15.1,72,29.99,10.0,NNW,9.2,-,N/A,,Clear,340,2013-02-04 08:53:00
3:53 AM,21.9,15.1,75,29.98,10.0,NNW,5.8,-,N/A,,Clear,340,2013-02-04 10:53:00
4:53 AM,21.9,15.1,75,29.98,10.0,NNW,9.2,-,N/A,,Clear,330,2013-02-04 11:53:00
5:53 AM,19.9,14.0,78,30.01,10.0,NW,4.6,-,N/A,,Clear,310,2013-02-04 12:53:00
6:53 AM,21.0,12.9,71,30.01,10.0,Calm,Calm,-,N/A,,Clear,0,2013-02-04 13:53:00
7:53 AM,24.1,16.0,71,30.01,10.0,Calm,Calm,-,N/A,,Clear,0,2013-02-04 14:53:00
8:53 AM,34.0,18.0,52,29.98,10.0,WNW,6.9,-,N/A,,Partly Cloudy,300,2013-02-04 15:53:00
9:53 AM,42.1,17.1,37,29.94,10.0,WNW,12.7,-,N/A,,Clear,300,2013-02-04 16:53:00
10:53 AM,46.9,17.1,30,29.91,10.0,WNW,15.0,-,N/A,,Scattered Clouds,300,2013-02-04 17:53:00
11:53 AM,52.0,12.9,21,29.86,10.0,West,19.6,27.6,N/A,,Clear,280,2013-02-04 18:53:00
12:53 PM,54.0,14.0,21,29.86,10.0,WNW,15.0,24.2,N/A,,Clear,290,2013-02-04 19:53:00
1:53 PM,54.0,14.0,21,29.83,10.0,WNW,16.1,21.9,N/A,,Clear,300,2013-02-04 20:53:00
2:53 PM,55.0,15.1,21,29.83,10.0,WNW,15.0,23.0,N/A,,Clear,300,2013-02-04 21:53:00
3:53 PM,52.0,16.0,24,29.86,10.0,WNW,16.1,-,N/A,,Clear,290,2013-02-04 22:53:00
4:53 PM,50.0,18.0,28,29.87,10.0,WNW,12.7,-,N/A,,Clear,290,2013-02-04 23:53:00
5:53 PM,39.0,15.1,38,29.92,10.0,North,4.6,-,N/A,,Clear,360,2013-02-05 00:53:00
6:53 PM,37.9,15.1,39,29.93,10.0,Variable,3.5,-,N/A,,Clear,0,2013-02-05 01:53:00
7:53 PM,30.0,15.1,54,29.95,10.0,NNE,6.9,-,N/A,,Clear,20,2013-02-05 02:53:00
8:53 PM,30.0,17.1,59,29.94,10.0,NNW,5.8,-,N/A,,Clear,340,2013-02-05 03:53:00
9:53 PM,25.0,15.1,66,29.94,10.0,NW,3.5,-,N/A,,Clear,320,2013-02-05 04:53:00
10:53 PM,26.1,16.0,66,29.91,10.0,North,3.5,-,N/A,,Clear,10,2013-02-05 05:53:00
11:53 PM,28.0,17.1,63,29.91,10.0,WNW,4.6,-,N/A,,Clear,290,2013-02-05 06:53:00